Wind_Speed
23 17 18 20 20 18 11 17 15 19 20 15 19 23 26 24 16 13 24 28 36 39 50 48 46 47 40 22 11 8 6 6 0 1 5 7 5 6 8 8 5 6 9
17 15 17 15 21 18 15 11 12 19 19 15 17 17 25 26 21 15 11 28 35 32 33 46 46 43 47 40 23 13 9 8 6 3 2 5 8 6 9 9 7 5 7
15 14 14 15 16 13 13 11 11 20 18 14 12 12 17 19 18 21 18 20 29 29 21 33 42 41 44 45 39 20 12 7 7 7 5 3 6 8 10 10 7 4 5
20 16 10 16 13 16 11 12 8 6 11 12 12 13 14 15 15 16 22 26 23 22 25 21 37 41 41 44 44 34 16 8 6 6 9 8 6 7 10 9 9 6 6
12 10 11 16 16 11 10 4 4 4 8 2 5 9 11 13 16 18 22 21 21 22 26 24 31 38 41 42 45 43 26 13 6 8 12 14 9 6 7 10 10 8 5
15 13 12 13 15 13 12 5 2 5 5 3 7 6 8 11 16 17 19 21 19 22 22 27 35 34 35 41 45 48 39 18 6 10 11 15 13 10 9 9 10 7 6
21 21 22 19 17 16 11 12 8 9 2 3 3 4 4 8 11 11 15 19 20 19 21 13 24 29 34 39 41 46 44 30 13 7 11 15 13 13 12 7 10 7 7
23 23 21 21 18 15 12 11 7 6 7 8 5 3 2 5 8 6 10 10 16 18 19 16 17 24 29 34 39 41 46 35 21 2 9 12 15 10 13 9 10 9 7
26 24 20 20 21 18 15 15 9 7 10 15 11 5 5 4 5 7 9 6 6 14 17 23 25 28 26 26 34 36 43 40 27 13 6 9 14 10 12 9 9 8 9
25 22 18 20 21 18 18 12 17 9 8 19 15 12 9 6 6 9 11 11 12 13 16 20 25 23 24 28 28 33 40 43 35 20 10 5 11 12 11 12 11 6 9
23 23 21 22 22 21 21 20 19 25 22 14 18 11 9 10 8 9 15 13 11 11 15 11 20 18 22 25 25 29 35 38 38 31 18 10 5 8 9 11 13 8 7
22 22 25 26 26 24 23 22 23 23 28 20 17 13 12 12 8 7 15 16 15 12 6 4 15 21 20 20 23 22 29 30 33 35 26 20 9 3 3 6 11 11 7
21 22 25 28 29 28 24 23 23 25 23 21 21 17 14 14 12 15 14 14 17 15 15 14 13 10 17 15 19 23 21 22 26 31 33 26 19 13 8 3 5 9 8
28 26 25 28 29 28 28 26 27 26 25 22 22 21 17 18 16 19 20 16 15 13 15 16 15 15 15 13 15 16 19 17 20 25 27 29 27 22 16 11 5 2 5
33 33 31 30 30 29 30 30 29 28 26 26 27 29 26 25 23 21 21 16 17 11 14 14 15 16 14 14 12 15 16 18 18 21 21 21 25 25 25 24 18 11 7
33 33 34 35 35 34 34 34 32 30 30 27 29 30 26 26 24 24 23 19 16 13 12 17 17 16 15 13 12 11 13 15 16 13 14 17 18 19 20 21 20 18 14
40 39 35 35 37 38 39 39 37 37 35 34 34 33 30 29 29 26 30 31 23 18 13 14 21 19 15 16 13 8 13 16 13 11 13 12 14 14 15 13 15 14 11
30 34 36 38 38 39 39 40 39 42 43 43 41 41 38 38 35 32 32 34 27 21 18 16 22 23 18 15 11 10 12 14 13 10 13 13 11 10 9 10 8 6 7
22 23 24 25 25 33 39 40 40 42 42 45 46 44 44 42 41 40 37 37 33 29 30 28 21 26 26 20 21 18 14 15 14 14 10 19 15 14 14 12 9 7 4
20 24 27 27 27 27 29 30 33 36 38 37 38 42 44 44 45 45 43 40 41 36 34 35 34 33 31 26 22 21 21 21 21 20 17 19 19 19 19 19 18 14 13
18 19 22 23 27 30 33 35 38 40 41 41 41 42 42 42 43 44 43 46 45 44 43 41 40 38 36 33 30 28 27 27 26 26 25 22 25 24 21 25 26 25 21
20 20 18 16 17 18 22 28 32 33 35 35 38 43 46 48 49 47 45 45 44 46 47 47 43 44 42 39 38 36 35 34 35 32 30 32 33 28 30 31 28 27 32
22 22 20 12 9 12 16 16 12 10 12 15 18 22 28 32 34 39 45 49 47 47 46 45 48 47 44 44 42 43 42 43 40 41 39 38 40 37 36 37 34 35 35
20 19 19 16 8 10 13 13 11 8 5 7 9 6 6 9 13 18 25 31 40 44 47 48 46 47 48 47 47 47 48 48 45 46 46 45 45 44 41 40 40 41 39
18 17 15 16 14 11 13 12 10 8 5 6 8 6 5 5 2 2 3 12 22 31 38 42 44 48 47 44 45 44 45 47 46 44 48 50 50 52 52 46 47 47 48
15 12 14 14 16 15 16 15 16 14 13 8 6 7 10 11 8 4 2 2 3 9 14 14 22 32 38 39 35 25 18 17 18 18 20 20 29 42 49 52 54 55 57
Wind_Direction
146 129 131 141 128 114 72 116 93 71 78 75 63 55 49 40 50 44 28 35 42 37 38 39 38 35 32 30 15 313 332 303 351 93 186 194 205 194 183 171 116 70 43
146 131 137 132 136 98 114 92 84 77 85 86 63 64 56 46 64 45 14 30 30 31 18 22 30 32 30 28 21 10 337 322 260 231 229 227 211 180 182 172 146 105 63
170 144 138 141 141 102 108 102 82 93 84 68 27 48 55 64 60 35 44 30 30 27 5 27 19 27 23 26 21 12 358 302 303 245 220 210 185 179 189 185 166 138 95
171 168 177 157 150 120 103 112 79 74 67 66 46 54 57 44 42 27 49 42 31 29 20 23 19 17 20 20 23 18 5 336 281 273 218 189 180 191 196 187 175 151 124
165 164 181 179 177 181 118 134 82 107 108 51 75 62 45 35 46 39 42 36 54 41 40 30 21 20 10 16 19 19 9 352 275 254 211 208 206 182 190 187 173 179 152
182 191 207 199 182 197 218 233 170 158 191 124 65 31 32 49 59 52 50 43 46 37 22 22 3 9 11 9 16 16 13 1 314 232 212 206 214 206 184 188 195 194 191
212 202 209 222 212 210 221 193 194 207 207 209 332 22 36 54 55 51 33 29 25 31 36 33 345 359 12 9 12 15 15 13 360 213 202 200 200 203 197 193 194 189 196
212 217 218 220 218 211 209 202 205 247 278 274 263 336 336 57 34 10 25 3 356 357 19 11 3 10 17 8 12 15 17 19 23 133 179 183 193 191 202 192 200 194 190
219 221 219 223 221 219 223 227 216 244 283 285 251 267 272 269 321 347 353 354 352 350 3 0 0 17 18 8 16 17 20 24 31 50 149 163 179 192 196 193 182 179 197
218 217 213 218 221 214 216 206 192 192 237 264 256 261 263 287 302 327 332 338 343 2 9 347 358 11 11 13 15 21 25 28 35 45 61 102 161 178 190 195 183 201 203
212 216 217 214 221 219 219 218 210 210 220 267 243 253 277 277 281 325 322 311 320 337 344 329 340 4 2 10 15 27 25 30 35 41 49 59 125 168 184 201 204 209 202
218 221 224 223 224 224 227 228 226 217 218 242 240 233 230 246 239 253 274 278 295 310 348 275 335 357 352 355 8 16 29 23 37 41 45 46 49 77 189 197 199 195 190
221 218 218 224 223 224 220 226 231 227 228 235 236 237 247 236 255 253 251 270 288 292 302 303 326 327 340 348 348 4 9 18 36 42 45 49 51 45 32 39 212 221 207
224 229 224 222 224 223 224 227 232 235 240 243 240 241 251 250 257 263 266 268 275 291 296 299 306 320 333 353 350 5 8 9 25 39 45 43 50 52 49 43 31 253 233
230 230 230 227 228 230 229 229 232 234 237 243 243 241 251 254 261 260 260 253 270 281 291 299 296 302 314 328 347 1 352 7 13 26 26 44 49 50 49 52 53 51 46
239 236 236 235 231 231 233 234 238 241 244 245 248 247 249 250 250 254 248 252 240 271 274 287 288 296 301 309 331 358 355 350 349 1 4 18 39 53 52 47 45 51 57
243 246 243 242 241 239 238 239 243 246 248 246 247 248 247 248 249 255 244 238 250 262 257 275 283 289 292 297 301 340 339 334 333 340 350 352 359 22 50 53 52 51 47
250 250 251 250 243 245 248 247 248 250 253 253 253 254 250 249 250 251 245 241 246 253 241 267 281 284 281 278 293 302 264 295 317 314 315 311 318 332 360 20 32 48 64
247 249 249 253 253 249 250 252 252 255 257 258 256 255 255 255 251 250 248 245 243 247 246 237 241 259 263 265 269 271 261 268 283 304 309 320 305 303 294 306 323 342 334
246 249 251 252 253 255 253 251 250 251 255 257 255 253 254 253 254 253 249 247 246 244 244 243 246 249 257 260 264 266 269 272 273 279 285 264 278 291 282 282 288 286 296
246 251 255 257 254 252 254 257 258 258 258 260 260 259 258 257 254 252 252 251 249 250 252 250 250 253 254 254 260 264 267 272 273 274 276 272 275 279 279 279 277 277 273
244 245 252 255 256 256 257 257 258 263 266 265 265 264 262 260 256 252 250 250 252 253 251 253 251 250 256 259 258 263 265 271 270 270 273 271 277 280 271 251 265 269 269
252 248 243 239 238 249 245 242 236 249 250 266 267 269 271 268 265 258 251 248 248 249 252 253 252 254 254 258 259 259 266 273 271 274 273 274 276 276 270 263 260 260 266
253 259 235 224 221 214 217 209 206 220 252 288 301 288 288 275 264 250 247 246 242 242 246 250 253 255 258 261 263 266 269 271 270 275 275 272 273 274 270 263 259 252 259
247 250 251 234 213 211 216 207 208 210 239 268 271 254 272 314 344 322 258 243 246 244 247 249 250 255 259 262 264 265 265 269 273 272 272 272 270 268 267 263 261 257 256
239 267 236 231 230 227 221 213 214 221 234 235 231 238 271 287 283 281 269 292 232 219 220 245 254 252 254 255 257 251 243 254 264 263 269 274 271 265 261 259 261 261 259
Height
11023 11025 11025 11026 11027 11028 11029 11029 11027 11025 11025 11025 11024 11023 11021 11018 11014 11013 11013 11012 11008 11005 11001 10997 10996 10993 10990 10987 10984 10982 10983 10982 10981 10982 10983 10985 10986 10987 10989 10991 10992 10991 10991
11023 11026 11027 11028 11029 11031 11031 11030 11029 11028 11027 11026 11027 11027 11024 11021 11018 11017 11015 11014 11012 11011 11006 11003 11001 10997 10994 10989 10985 10982 10982 10981 10981 10981 10982 10984 10985 10987 10989 10990 10992 10992 10992
11024 11026 11027 11028 11032 11033 11033 11031 11029 11029 11031 11031 11030 11029 11025 11025 11022 11021 11019 11018 11015 11015 11011 11008 11005 11000 10997 10991 10986 10981 10980 10980 10980 10981 10982 10983 10984 10986 10988 10990 10992 10993 10993
11025 11027 11028 11030 11032 11033 11031 11031 11031 11030 11030 11032 11031 11030 11028 11024 11023 11023 11022 11018 11017 11016 11014 11010 11009 11004 10999 10995 10988 10982 10979 10978 10978 10979 10981 10983 10984 10985 10988 10990 10992 10994 10994
11025 11027 11028 11030 11032 11031 11031 11030 11031 11032 11032 11032 11032 11031 11029 11026 11024 11024 11022 11020 11020 11018 11017 11014 11008 11005 11002 10996 10988 10983 10979 10975 10974 10976 10978 10981 10984 10985 10987 10990 10992 10994 10995
11024 11025 11027 11028 11029 11030 11032 11032 11032 11033 11032 11031 11031 11030 11030 11028 11027 11027 11025 11023 11022 11018 11016 11013 11009 11006 11004 10997 10990 10983 10978 10972 10970 10972 10975 10979 10982 10985 10987 10989 10992 10995 10996
11022 11025 11026 11026 11027 11028 11030 11031 11032 11031 11031 11031 11030 11028 11029 11029 11029 11029 11028 11026 11025 11022 11019 11017 11012 11008 11005 11002 10993 10987 10979 10971 10967 10968 10971 10976 10981 10983 10986 10989 10991 10994 10996
11019 11021 11023 11024 11025 11026 11028 11029 11030 11031 11032 11031 11030 11030 11030 11030 11029 11030 11029 11028 11026 11025 11020 11017 11013 11010 11007 11004 10998 10991 10984 10974 10968 10968 10971 10974 10980 10983 10986 10988 10991 10993 10995
11016 11018 11020 11022 11023 11024 11025 11026 11030 11032 11032 11031 11031 11031 11030 11030 11030 11031 11029 11028 11026 11025 11022 11019 11016 11012 11010 11008 11002 10997 10990 10978 10971 10971 10973 10975 10979 10983 10986 10988 10990 10992 10994
11013 11015 11016 11018 11020 11023 11023 11025 11028 11031 11033 11031 11032 11031 11031 11031 11031 11031 11030 11029 11028 11026 11024 11021 11018 11015 11011 11009 11006 11002 10994 10984 10980 10976 10977 10977 10979 10983 10986 10988 10991 10992 10993
11010 11012 11014 11015 11016 11020 11021 11023 11023 11025 11029 11030 11030 11030 11030 11031 11031 11030 11029 11029 11029 11027 11026 11023 11021 11017 11014 11011 11008 11003 10999 10994 10987 10983 10981 10981 10982 10983 10986 10988 10990 10992 10992
11007 11010 11012 11012 11013 11015 11017 11020 11019 11022 11024 11027 11027 11027 11030 11030 11030 11026 11027 11028 11028 11028 11027 11025 11020 11017 11016 11013 11010 11007 11003 11002 10996 10992 10986 10985 10985 10986 10987 10987 10989 10991 10993
11004 11005 11006 11007 11008 11011 11014 11015 11017 11019 11020 11022 11024 11023 11024 11026 11026 11025 11025 11025 11025 11026 11025 11023 11020 11019 11016 11014 11011 11009 11006 11005 11001 10997 10993 10989 10988 10989 10990 10989 10989 10991 10992
10998 10999 11001 11002 11004 11007 11010 11011 11013 11014 11016 11018 11019 11020 11021 11022 11023 11023 11023 11022 11022 11022 11021 11020 11019 11017 11015 11014 11013 11012 11009 11008 11005 11002 10998 10997 10993 10991 10991 10991 10990 10991 10992
10991 10992 10994 10997 10999 11001 11003 11005 11006 11008 11011 11013 11014 11015 11017 11018 11017 11018 11018 11018 11018 11018 11018 11018 11017 11016 11015 11014 11013 11011 11010 11008 11005 11002 11003 11002 10998 10996 10995 10993 10992 10993 10993
10986 10988 10990 10991 10994 10995 10996 10999 11001 11003 11004 11007 11007 11009 11011 11011 11011 11011 11013 11014 11014 11014 11013 11014 11015 11014 11013 11013 11012 11010 11009 11008 11007 11007 11007 11005 11002 11000 10999 10998 10997 10997 10996
10980 10981 10984 10985 10987 10990 10991 10993 10993 10994 10996 10997 10998 11000 11003 11004 11004 11006 11006 11007 11008 11009 11010 11010 11011 11011 11011 11010 11010 11009 11010 11008 11008 11006 11005 11006 11006 11004 11001 11001 11000 11000 11000
10974 10975 10977 10979 10981 10983 10985 10986 10989 10989 10988 10989 10989 10991 10994 10994 10996 10997 10999 11000 11001 11003 11004 11007 11008 11007 11007 11007 11007 11007 11007 11006 11005 11005 11005 11004 11005 11005 11003 11002 11002 11002 11002
10968 10969 10970 10972 10972 10974 10977 10978 10979 10979 10980 10981 10981 10981 10983 10984 10987 10988 10991 10993 10995 10996 10997 10997 10999 11002 11001 11002 11002 11003 11002 11002 11003 11002 11002 11003 11002 11002 11003 11002 11002 11003 11002
10963 10964 10965 10965 10966 10967 10968 10968 10969 10970 10970 10970 10970 10971 10973 10974 10975 10978 10980 10984 10987 10988 10990 10991 10992 10994 10996 10997 10997 10998 10998 10998 10998 10999 10998 10998 10998 10998 10999 10999 10999 11000 11001
10958 10959 10959 10959 10958 10959 10960 10961 10961 10960 10960 10961 10961 10961 10961 10962 10962 10964 10967 10970 10975 10978 10981 10983 10984 10985 10988 10990 10990 10991 10991 10993 10993 10992 10993 10994 10993 10993 10993 10994 10995 10995 10996
10952 10954 10956 10955 10953 10952 10952 10952 10952 10953 10952 10951 10950 10949 10949 10949 10950 10952 10955 10959 10963 10966 10969 10972 10975 10977 10978 10980 10982 10983 10984 10985 10986 10985 10985 10987 10986 10987 10988 10987 10987 10987 10988
10946 10949 10951 10952 10950 10948 10946 10946 10948 10949 10949 10948 10945 10943 10941 10939 10939 10940 10942 10946 10950 10954 10958 10961 10963 10966 10968 10970 10971 10972 10974 10975 10977 10976 10976 10979 10977 10977 10978 10978 10978 10979 10978
10941 10943 10945 10946 10947 10945 10944 10943 10943 10944 10944 10944 10943 10941 10939 10935 10932 10931 10931 10934 10937 10942 10946 10950 10953 10955 10957 10959 10961 10962 10963 10963 10965 10965 10964 10965 10965 10965 10965 10966 10968 10968 10967
10936 10937 10940 10941 10940 10941 10941 10940 10939 10939 10940 10939 10938 10939 10938 10936 10935 10932 10931 10931 10932 10934 10938 10940 10942 10944 10948 10948 10949 10951 10951 10952 10953 10953 10950 10950 10952 10950 10950 10952 10953 10954 10955
10931 10933 10933 10933 10934 10933 10933 10931 10931 10932 10934 10935 10935 10935 10937 10936 10934 10934 10932 10933 10931 10932 10932 10932 10932 10934 10936 10937 10939 10941 10942 10941 10942 10943 10939 10937 10937 10934 10934 10938 10938 10939 10939